• Join FlightAware (Why Join?)
  • Login
  • US Flag 
12:34AM EST


 

Airport Tracker/Info


-or-


 

Live Flight TrackerFlight Track Log ✈ TUS8472 ✈ 06-May-2013 ✈ SKBO / BOG - KMIA

Flight Track Log - Related Links

Times and Time Zones

All times are in EDT time to prevent confusion due to time zone crossing. See the TUS8472 flight status page for this flight to view local times or setup timezone preferences in your user account.

Time Position Orientation Groundspeed Altitude Reporting Facility
EDT Latitude Longitude Course Direction KTS MPH feet Rate Location/Type
05:11AM 25.7954 -80.2901 345° North  Level Estimated
05:12AM 25.7954 -80.2901 318° Northwest  Level Estimated
05:27AM 24.8642 -79.4675 318° Northwest 370 426 22,100  Level Miami Center
05:28AM 24.9572 -79.5108 337° Northwest 364 419 20,600 -1,600 Descending Miami Center
05:29AM 25.0442 -79.5561 335° Northwest 352 405 18,900 -1,800 Descending Miami Center
05:30AM 25.1311 -79.5994 336° Northwest 346 398 17,000 -2,000 Descending Miami Center
05:30AM 25.1642 -79.6186 332° Northwest 342 394 16,200 -1,905 Descending Miami Center
05:31AM 25.2161 -79.6403 339° North 339 390 15,000 -2,239 Descending Miami Center
05:31AM 25.2533 -79.6642 330° Northwest 299 344 13,700 -2,379 Descending Miami Center
05:32AM 25.2928 -79.6789 341° North 318 366 12,700 -2,100 Descending Miami Center
05:32AM 25.3300 -79.7006 332° Northwest 298 343 11,600 -1,700 Descending Miami Center
05:33AM 25.3650 -79.7150 340° North 303 349 11,000 -1,322 Descending Miami Center
05:33AM 25.3981 -79.7433 322° Northwest 279 321 10,300 -1,220 Descending Miami Center
05:34AM 25.4289 -79.7650 328° Northwest 282 325 9,800 -1,000 Descending Miami Center
05:34AM 25.4575 -79.7978 314° West 268 308 9,300 -1,082 Descending Miami Center
05:35AM 25.4844 -79.8144 331° Northwest 271 312 8,700 -1,180 Descending Miami Center
05:35AM 25.5150 -79.8453 318° Northwest 265 305 8,100 -1,220 Descending Miami Center
05:36AM 25.5439 -79.8644 329° Northwest 266 306 7,500 -1,100 Descending Miami Center
05:36AM 25.5703 -79.8972 312° West 261 300 7,000 -800 Descending Miami Center
05:37AM 25.5992 -79.9164 329° Northwest 261 300 6,700 -632 Descending Miami Center
05:37AM 25.6197 -79.9400 314° West 245 282 6,400 -787 Descending Miami Center
05:38AM 25.6486 -79.9592 329° Northwest 248 285 5,900 -900 Descending Miami Center
05:38AM 25.6669 -79.9803 314° West 212 244 5,500 -915 Descending Miami Center
05:39AM 25.6917 -79.9972 328° Northwest 219 252 5,000 -968 Descending Miami Center
05:39AM 25.7078 -80.0161 313° West 180 207 4,500 -1,000 Descending Miami Center
05:40AM 25.7306 -80.0328 327° Northwest 194 223 4,000 -800 Descending Miami Center
05:40AM 25.7467 -80.0517 313° West 175 201 3,700 -690 Descending Miami Center
05:41AM 25.7856 -80.0872 321° Northwest 167 192 3,000 -650 Descending Miami Center
05:42AM 25.8078 -80.1247 303° West 162 186 2,400 -678 Descending Miami Center
05:43AM 25.8028 -80.1683 263° West 163 188 1,700 -698 Descending Miami Center
05:44AM 25.8036 -80.2217 271° West 150 173 900 -722 Descending Miami Center
05:45AM 25.7983 -80.2675 263° West 150 173 100 -814 Descending Miami Center